{"data":{"norad_id":47834,"epoch":"2026-05-24T18:36:07.555680Z","epoch_age_seconds":108664,"freshness":"FRESH","line1":"1 47834U 21018AZ  26144.77508745  .00008905  00000+0  29806-3 0  9997","line2":"2 47834  53.1586 251.1774 0001086  74.4306 285.6815 15.31733367288408","mean_motion":15.31733367,"eccentricity":0.0001086,"inclination_deg":53.1586,"raan_deg":251.1774,"arg_perigee_deg":74.4306,"mean_anomaly_deg":285.6815,"bstar":0.00029806,"rev_number":28840,"period_min":94.011139994968,"perigee_km":469.89675450059,"apogee_km":471.38430898049,"semimajor_km":6848.7775317405,"source":"CELESTRAK","updated_at":"2026-05-25T13:38:16.606723Z"}}